Location: Lake Arresoe
(56.0000°N, 12.5000°E)
Time: 07:31:14
(UTC+02:00)

Cosmos 1674 - Visible Passes

Search period start: 25 July 2021 00:00
Search period end: 04 August 2021 00:00
Orbit: 494 x 515 km, 82.5° (Epoch: 24 July)

Date Brightness Start Highest point End Pass type
(mag) Time Alt. Az. Time Alt. Az. Time Alt. Az.
25 Jul 5.6 02:49:11 10° NNE 02:51:32 15° ENE 02:53:52 10° E visible
26 Jul 5.7 02:31:01 10° NNE 02:32:50 13° ENE 02:34:37 10° E visible
26 Jul 2.8 04:05:08 10° N 04:09:01 81° ENE 04:12:51 10° SSE visible
27 Jul 5.9 02:13:13 10° NE 02:14:07 11° NE 02:14:59 10° ENE visible
27 Jul 3.2 03:46:36 10° N 03:50:26 64° ENE 03:54:15 10° SSE visible
28 Jul 3.6 03:28:04 10° N 03:31:51 50° ENE 03:35:35 10° SSE visible
29 Jul 4.0 03:09:34 10° N 03:13:14 40° ENE 03:16:52 10° SE visible
30 Jul 4.4 02:51:06 10° N 02:54:36 32° ENE 02:58:05 10° SE visible
31 Jul 4.7 02:32:39 10° N 02:35:57 26° ENE 02:39:14 10° SE visible
31 Jul 3.3 04:07:57 10° NNW 04:11:34 39° W 04:15:08 10° SSW visible
01 Aug 5.0 02:14:14 10° NNE 02:17:17 22° ENE 02:20:19 10° ESE visible
01 Aug 3.0 03:49:18 10° NNW 03:53:02 49° W 03:56:45 10° S visible
02 Aug 5.2 01:55:52 10° NNE 01:58:36 18° ENE 02:01:18 10° ESE visible
02 Aug 2.7 03:30:41 10° NNW 03:34:30 63° W 03:38:10 11° S visible
03 Aug 5.4 01:37:35 10° NNE 01:39:53 15° ENE 01:42:12 10° E visible
03 Aug 2.6 03:12:05 10° NNW 03:15:56 81° W 03:19:17 13° S visible
